Flag for USA

Past Weather in Ocala, Florida, USA — Yesterday and Last 2 Weeks

Now
87 °F

Scattered clouds.


Feels Like: 98 °F
Forecast: 90 / 77 °F
Wind: 8 mph from North

Location: Ocala Municipal

Current Time: Jul 9, 2020 at 11:42:43 am

Latest Report: Jul 9, 2020 at 10:51 am


Visibility: 10 mi

Pressure: 29.95 "Hg

Humidity: 69%

Dew Point: 76 °F

Location of OcalaLocation

Past Weather in Ocala — Graph

°F

Ocala Temperature Yesterday

Maximum temperature yesterday: 88 °F (at 4:51 pm)
Minimum temperature yesterday: 75 °F (at 3:51 am)
Average temperature yesterday: 80 °F

High & Low Weather Summary for the Past Weeks

 TemperatureHumidityPressure
High96 °F (Jun 25, 3:51 pm)100% (Jun 25, 4:51 am)30.22 "Hg (Jun 25, 4:51 am)
Low72 °F (Jun 25, 4:51 am)38% (Jun 25, 3:51 pm)29.88 "Hg (Jul 3, 5:21 pm)
Average81 °F82%30.01 "Hg
* Reported Jun 24 9:51 am — Jul 9 9:51 am, Ocala. Weather by CustomWeather, © 2020

Note: Actual official high and low records may vary slightly from our data, if they occured in-between our weather recording intervals... More about our weather records

Ocala Weather History for the Previous 24 Hours

Scroll right to see more
 ConditionsComfort  
Time TempWeatherWind HumidityBarometerVisibility
9:51 am
Thu, Jul 9
85 °FScattered clouds.8 mph77%29.95 "Hg10 mi
8:51 am82 °FScattered clouds.7 mph88%29.95 "Hg10 mi
7:51 am78 °FSunny.3 mph100%29.93 "Hg10 mi
6:51 am77 °FSunny.3 mph100%29.93 "Hg10 mi
5:51 am77 °FClear.3 mph100%29.93 "Hg10 mi
4:51 am77 °FClear.5 mph100%29.91 "Hg10 mi
3:51 am77 °FClear.3 mph100%29.91 "Hg10 mi
2:51 am77 °FClear.3 mph96%29.91 "Hg10 mi
1:51 am77 °FClear.5 mph100%29.93 "Hg10 mi
12:51 am78 °FClear.No wind96%29.94 "Hg10 mi
11:51 pm
Wed, Jul 8
79 °FClear.5 mph94%29.95 "Hg10 mi
10:51 pm79 °FClear.5 mph90%29.95 "Hg10 mi
9:51 pm80 °FClear.5 mph87%29.93 "Hg10 mi
8:51 pm82 °FClear.7 mph82%29.91 "Hg10 mi
7:51 pm84 °FPassing clouds.7 mph77%29.90 "Hg10 mi
6:51 pm87 °FScattered clouds.12 mph69%29.90 "Hg10 mi
5:51 pm86 °FSunny.12 mph70%29.91 "Hg10 mi
4:51 pm88 °FPassing clouds.14 mph65%29.91 "Hg10 mi
3:51 pm87 °FBroken clouds.12 mph67%29.92 "Hg10 mi
2:58 pm86 °FBroken clouds.16 mph70%29.95 "Hg10 mi
1:51 pm85 °FPartly sunny.8 mph77%29.98 "Hg10 mi
12:51 pm82 °FScattered clouds.13 mph82%30.00 "Hg10 mi
11:51 am81 °FScattered clouds.8 mph88%30.01 "Hg10 mi
Weather by CustomWeather, © 2020

See weather overview